Location: Songkhla
(7.2000°N, 100.6000°E)
Time: 04:08:56
(UTC+07:00)

BRICSAT 2 - Pass Details

Date: 24 June 2021
Orbit: 295 x 638 km, 28.5° (Epoch: 28 July)

Event Time Altitude Azimuth Distance (km) Brightness Sun altitude
Rises 19:58:07 0° 289° (WNW) 2,428 ? -19.1°
Reaches altitude 10° 20:00:13 10° 282° (WNW) 1,622 ? -19.6°
Maximum altitude 20:03:48 43° 209° (SSW) 723 ? -20.4°
Enters shadow 20:04:23 40° 184° (S) 769 ? -20.5°
Drops below altitude 10° 20:07:52 10° 137° (SE) 1,837 - -21.3°
Sets 20:10:23 0° 131° (SE) 2,795 - -21.8°
